Regional Weather Roundup
Issued by NWS

Home | Current Version | Previous Version | Graphics & Text | Print | Product List | Glossary On
Versions: 1 2 3 4 5 6 7 8 9 10 11 12 13 14 15 16 17 18 19 20 21 22 23 24 25 26 27 28
000
ASUS45 KCYS 171510
RWRWY

WYOMING REGIONAL WEATHER ROUNDUP
NATIONAL WEATHER SERVICE CHEYENNE WY
900 AM MDT THU AUG 17 2017

NOTE:  "FAIR" INDICATES FEW OR NO CLOUDS BELOW 12,000 FEET
WITH NO SIGNIFICANT WEATHER AND/OR OBSTRUCTIONS TO VISIBILITY.

WYZ001-171600-
YELLOWSTONE NATIONAL PARK

CITY           SKY/WX    TMP DP  RH WIND       PRES   REMARKS
LK YELLOWSTONE   N/A     55  42  61 CALM      30.30S
W YELLOWSTONE  NOT AVBL

$$
WYZ002>013-054>058-071-098>099-171600-
NORTHERN WYOMING

CITY           SKY/WX    TMP DP  RH WIND       PRES   REMARKS
JACKSON        FAIR      53  36  52 S3        30.25S
CODY           FAIR      64  46  52 SW3       30.11R
GREYBULL       PTSUNNY   62  45  53 CALM      30.04R
WORLAND        FAIR      64  44  48 CALM      30.05R
SHERIDAN       FAIR      69  48  47 CALM      30.00S
BUFFALO        FAIR      70  41  34 W5        30.07R
GILLETTE       FAIR      73  39  29 N3        30.01R
HULETT         FAIR      72  45  37 SW8       30.02S
NEWCASTLE      FAIR      61  46  59 CALM      30.04S

$$
WYZ014>020-022>026-101>103-171600-
CENTRAL WYOMING

CITY           SKY/WX    TMP DP  RH WIND       PRES   REMARKS
BIG PINEY      PTSUNNY   50  38  63 CALM      30.30R
PINEDALE       FAIR      54  37  54 CALM      30.30S
DUBOIS         FAIR      55  34  44 NW13      30.24F
LANDER           N/A    N/A N/A N/A MISG      30.14R
RIVERTON       CLOUDY    65  36  34 SW7       30.14R
CASPER         FAIR      70  42  36 SW18      30.12R
DOUGLAS        FAIR      66  47  50 NW3       30.09S

$$
WYZ021-027>030-104>119-171600-
SOUTHERN WYOMING

CITY           SKY/WX    TMP DP  RH WIND       PRES   REMARKS
EVANSTON       PTSUNNY   61  37  41 S8        30.31R
KEMMERER         N/A     55  39  54 N7        30.31S
FORT BRIDGER   FAIR      69  35  28 W8        30.32S
ROCK SPRINGS   PTSUNNY   63  38  39 SW5       30.28S
RAWLINS        FAIR      64  39  39 SW18      30.26R
SARATOGA       FAIR      63  41  45 SE7       30.29S
LARAMIE        FAIR      66  40  38 SW15      30.26S
CHEYENNE       FAIR      71  42  35 W15       30.18S
TORRINGTON     FAIR      61  53  75 CALM      30.06R
PINE BLUFFS    FAIR      64  52  63 S6        30.14S

$$




USA.gov is the U.S. government's official web portal to all federal, state and local government web resources and services.